WA2GUG Weather Reports


time (UTC)temp
C
wind
direction
speed
KPH
gust
KPH
rain 1hr
cm
rain 24hr
cm
rain mn
cm
humidity
%
barometer
mb
20260901201159 -17 337 0.0 0.0 0.00 0.00 0.00 99 1011.0
20260901200659 -17 337 0.0 0.0 0.00 0.00 0.00 99 1010.2
20260901200159 -17 354 0.0 0.0 0.00 0.00 0.00 99 1010.2
20260901195659 -17 59 0.0 0.0 0.00 0.00 0.00 99 1010.2
20260901195159 -17 84 0.0 0.0 0.00 0.00 0.00 99 1011.0
20260901194659 -17 7 0.0 0.0 0.00 0.00 0.00 99 1010.2
20260901194159 -17 34 0.0 0.0 0.00 0.00 0.00 99 1010.2
20260901193659 -17 339 0.0 0.0 0.00 0.00 0.00 99 1011.0
20260901193159 -17 249 0.0 0.0 0.00 0.00 0.00 99 1010.2
20260901192659 -17 205 0.0 0.0 0.00 0.00 0.00 99 1010.1
20260901192159 -17 142 0.0 0.0 0.00 0.00 0.00 99 1010.1
20260901191659 -17 24 0.0 0.0 0.00 0.00 0.00 99 1010.1
20260901191159 -17 136 0.0 0.0 0.00 0.00 0.00 99 1010.0
20260901190659 -17 148 0.0 0.0 0.00 0.00 0.00 99 1010.0
20260901190159 -17 106 0.0 0.0 0.00 0.00 0.00 99 1010.0
20260901185659 -17 172 0.0 0.0 0.00 0.00 0.00 99 1010.0
20260901185159 -17 180 0.0 0.0 0.00 0.00 0.00 99 1010.0
20260901184659 -17 150 0.0 0.0 0.00 0.00 0.00 99 1010.0
20260901184159 -17 86 0.0 0.0 0.00 0.00 0.00 99 1010.0
20260901183659 -17 114 0.0 0.0 0.00 0.00 0.00 99 1010.0
20260901183159 -17 145 0.0 0.0 0.00 0.00 0.00 99 1010.0
20260901182659 -17 112 0.0 0.0 0.00 0.00 0.00 99 1010.0
20260901182159 -17 120 0.0 0.0 0.00 0.00 0.00 99 1010.0
20260901181659 -17 115 0.0 0.0 0.00 0.00 0.00 99 1010.0
20260901181159 -17 165 0.0 0.0 0.00 0.00 0.00 99 1010.0
20260901180659 -17 144 0.0 3.2 0.00 0.00 0.00 99 1010.0
20260901180159 -17 167 0.0 3.2 0.00 0.00 0.00 99 1010.0
20260901175659 -17 173 0.0 0.0 0.00 0.00 0.00 99 1010.0
20260901175159 -17 165 0.0 0.0 0.00 0.00 0.00 99 1010.0
20260901174659 -17 147 0.0 0.0 0.00 0.00 0.00 99 1010.0
20260901174159 -17 177 0.0 0.0 0.00 0.00 0.00 99 1010.0
20260901173659 -17 177 0.0 0.0 0.00 0.00 0.00 99 1010.0
20260901173159 -17 135 0.0 3.2 0.00 0.00 0.00 99 1010.0
20260901172659 -17 135 0.0 4.8 0.00 0.00 0.00 99 1010.0
20260901172159 -17 146 1.6 4.8 0.00 0.00 0.00 99 1010.0
20260901171659 -17 125 0.0 4.8 0.00 0.00 0.00 99 1010.0
20260901171159 -17 202 0.0 4.8 0.00 0.00 0.00 99 1010.0
20260901170659 -17 184 0.0 4.8 0.00 0.00 0.00 99 1010.0
20260901170159 -17 153 1.6 4.8 0.00 0.00 0.00 99 1010.0
20260901165659 -17 163 0.0 6.4 0.00 0.00 0.00 99 1010.0
20260901165159 -17 139 1.6 6.4 0.00 0.00 0.00 99 1010.0
20260901164659 -17 165 0.0 3.2 0.00 0.00 0.00 99 1010.0
20260901164159 -17 162 0.0 0.0 0.00 0.00 0.00 99 1010.0
20260901163659 -17 138 0.0 0.0 0.00 0.00 0.00 99 1010.0
20260901163159 -17 272 0.0 0.0 0.00 0.00 0.00 99 1010.0
20260901162659 -17 276 0.0 0.0 0.00 0.00 0.00 99 1010.0
20260901162159 -17 139 0.0 0.0 0.00 0.00 0.00 99 1010.0
20260901161659 -17 134 0.0 0.0 0.00 0.00 0.00 99 1010.0
20260901161159 -17 135 0.0 3.2 0.00 0.00 0.00 99 1010.0
20260901160659 -17 140 0.0 3.2 0.00 0.00 0.00 99 1010.0
20260901160159 -17 118 0.0 0.0 0.00 0.00 0.00 99 1010.0
20260901155659 -17 132 0.0 0.0 0.00 0.00 0.00 99 1010.0
20260901155159 -17 181 0.0 0.0 0.00 0.00 0.00 99 1010.0
20260901154659 -17 154 0.0 0.0 0.00 0.00 0.00 99 1010.0
20260901154159 -17 105 0.0 0.0 0.00 0.00 0.00 99 1010.1
20260901153659 -17 123 0.0 0.0 0.00 0.00 0.00 99 1010.0
20260901153159 -17 239 0.0 0.0 0.00 0.00 0.00 99 1010.0
20260901152659 -17 281 0.0 0.0 0.00 0.00 0.00 99 1010.0
20260901152159 -17 182 0.0 0.0 0.00 0.00 0.00 99 1010.0
20260901151659 -17 142 0.0 0.0 0.00 0.00 0.00 99 1010.2
20260901151159 -17 330 0.0 0.0 0.00 0.00 0.00 99 1010.0
20260901150659 -17 301 0.0 0.0 0.00 0.00 0.00 99 1010.1
20260901150159 -17 192 0.0 0.0 0.00 0.00 0.00 99 1010.1
20260901145659 -17 127 0.0 0.0 0.00 0.00 0.00 99 1010.0
20260901145159 -17 317 0.0 0.0 0.00 0.00 0.00 99 1010.0
20260901144659 -17 324 0.0 0.0 0.00 0.00 0.00 99 1010.1
20260901144159 -17 279 0.0 0.0 0.00 0.00 0.00 99 1010.1
20260901143659 -17 269 0.0 0.0 0.00 0.00 0.00 99 1010.2
20260901143159 -17 229 0.0 0.0 0.00 0.00 0.00 99 1010.2
20260901142659 -17 141 0.0 0.0 0.00 0.00 0.00 99 1010.2
20260901142159 -17 252 0.0 0.0 0.00 0.00 0.00 99 1010.2
20260901141659 -17 261 0.0 0.0 0.00 0.00 0.00 99 1010.1
20260901141159 -17 204 0.0 0.0 0.00 0.00 0.00 99 1010.0
20260901140659 -17 287 0.0 0.0 0.00 0.00 0.00 99 1010.0
20260901140159 -17 142 0.0 0.0 0.00 0.00 0.00 99 1010.2
20260901135659 -17 177 0.0 0.0 0.00 0.00 0.00 99 1011.0
20260901135159 -17 133 0.0 0.0 0.00 0.00 0.00 99 1011.0
20260901134659 -17 224 0.0 0.0 0.00 0.00 0.00 99 1010.2
20260901134159 -17 237 0.0 0.0 0.00 0.00 0.00 99 1010.2
20260901133659 -17 345 0.0 1.6 0.00 0.00 0.00 99 1010.2
20260901133159 -17 284 0.0 1.6 0.00 0.00 0.00 99 1010.2
20260901132659 -17 338 0.0 0.0 0.00 0.00 0.00 99 1011.0
20260901132159 -17 288 0.0 0.0 0.00 0.00 0.00 99 1010.2
20260901131659 -17 233 0.0 0.0 0.00 0.00 0.00 99 1010.2
20260901131159 -17 228 0.0 0.0 0.00 0.00 0.00 99 1010.2
20260901130659 -17 290 0.0 0.0 0.00 0.00 0.00 99 1011.0
20260901130159 -17 20 0.0 0.0 0.00 0.00 0.00 99 1011.0
20260901125659 -17 50 0.0 0.0 0.00 0.00 0.00 99 1011.0
20260901125159 -17 312 0.0 0.0 0.00 0.00 0.00 99 1011.0
20260901124659 -17 319 0.0 0.0 0.00 0.00 0.00 99 1011.0
20260901124159 -17 31 0.0 0.0 0.00 0.00 0.00 99 1011.0
20260901123659 -17 254 0.0 0.0 0.00 0.00 0.00 99 1011.0
20260901123159 -17 79 0.0 0.0 0.00 0.00 0.00 99 1011.0
20260901122659 -17 96 0.0 0.0 0.00 0.00 0.00 99 1011.0
20260901122159 -17 13 0.0 0.0 0.00 0.00 0.00 99 1010.2
20260901121659 -17 155 0.0 0.0 0.00 0.00 0.00 99 1011.0
20260901121159 -17 312 0.0 0.0 0.00 0.00 0.00 99 1011.0
20260901120659 -17 135 0.0 0.0 0.00 0.00 0.00 99 1011.0
20260901120159 -17 127 0.0 0.0 0.00 0.00 0.00 99 1011.0
20260901115659 -17 59 0.0 0.0 0.00 0.00 0.00 99 1011.0
20260901115159 -17 131 0.0 0.0 0.00 0.00 0.00 99 1010.2
20260901114659 -17 133 0.0 0.0 0.00 0.00 0.00 99 1011.0
20260901114159 -17 315 0.0 0.0 0.00 0.00 0.00 99 1011.0
20260901113659 -17 2 0.0 0.0 0.00 0.00 0.00 99 1011.0
20260901113159 -17 54 0.0 0.0 0.00 0.00 0.00 99 1011.0
20260901112659 -17 270 0.0 0.0 0.00 0.00 0.00 99 1010.2
20260901112159 -17 256 0.0 0.0 0.00 0.00 0.00 99 1010.2
20260901111659 -17 304 0.0 0.0 0.00 0.00 0.00 99 1010.2
20260901111159 -17 322 0.0 0.0 0.00 0.00 0.00 99 1010.2
20260901110659 -17 267 0.0 0.0 0.00 0.00 0.00 99 1010.2
20260901110159 -17 235 0.0 0.0 0.00 0.00 0.00 99 1011.0
20260901105659 -17 225 0.0 0.0 0.00 0.00 0.00 99 1011.0
20260901105159 -17 45 0.0 0.0 0.00 0.00 0.00 99 1011.0
20260901104659 -17 247 0.0 0.0 0.00 0.00 0.00 99 1010.2
20260901104159 -17 260 0.0 0.0 0.00 0.00 0.00 99 1010.2
20260901103659 -17 103 0.0 0.0 0.00 0.00 0.00 99 1011.0
20260901103159 -17 15 0.0 0.0 0.00 0.00 0.00 99 1011.0
20260901102659 -17 320 0.0 0.0 0.00 0.00 0.00 99 1010.1
20260901102159 -17 333 0.0 0.0 0.00 0.00 0.00 99 1010.1
20260901101659 -17 315 0.0 0.0 0.00 0.00 0.00 99 1010.0
20260901101159 -17 294 0.0 0.0 0.00 0.00 0.00 99 1010.0
20260901100659 -17 290 0.0 0.0 0.00 0.00 0.00 99 1010.0
20260901100159 -17 302 0.0 0.0 0.00 0.00 0.00 99 1010.0
20260901095659 -17 180 0.0 0.0 0.00 0.00 0.00 99 1010.0
20260901095159 -17 72 0.0 0.0 0.00 0.00 0.00 99 1010.0
20260901094659 -17 273 0.0 0.0 0.00 0.00 0.00 99 1010.0
20260901094159 18 270 0.0 0.0 0.00 0.00 0.00 99 1010.0
20260901093659 18 306 0.0 0.0 0.00 0.00 0.00 99 1010.0
20260901093159 18 180 0.0 0.0 0.00 0.00 0.00 99 1010.0
20260901092659 18 180 0.0 0.0 0.00 0.00 0.00 99 1010.1
20260901092159 18 180 0.0 0.0 0.00 0.00 0.00 99 1010.2
20260901091659 18 180 0.0 0.0 0.00 0.00 0.00 99 1011.0
20260901091159 18 180 0.0 0.0 0.00 0.00 0.00 99 1010.2
20260901090659 18 151 0.0 0.0 0.00 0.00 0.00 99 1010.2
20260901090159 18 80 0.0 0.0 0.00 0.00 0.00 99 1011.0
20260901085659 18 249 0.0 0.0 0.00 0.00 0.00 99 1010.2
20260901085159 18 247 0.0 0.0 0.00 0.00 0.00 99 1010.2
20260901084659 18 135 0.0 0.0 0.00 0.00 0.00 99 1011.0
20260901084159 18 129 0.0 0.0 0.00 0.00 0.00 99 1011.0
20260901083659 18 340 0.0 0.0 0.00 0.00 0.00 99 1011.0
20260901083159 18 276 0.0 0.0 0.00 0.00 0.00 99 1011.0
20260901082659 18 159 0.0 0.0 0.00 0.00 0.00 99 1011.0
20260901082159 18 135 0.0 0.0 0.00 0.00 0.00 99 1011.0
20260901081659 18 127 0.0 0.0 0.00 0.00 0.00 99 1011.0
20260901081159 18 135 0.0 0.0 0.00 0.00 0.00 99 1011.0
20260901080659 18 169 0.0 0.0 0.00 0.00 0.00 99 1011.0
20260901080159 18 180 0.0 0.0 0.00 0.00 0.00 99 1011.0
20260901075659 18 180 0.0 0.0 0.00 0.00 0.00 99 1011.0
20260901075201 18 180 0.0 0.0 0.00 0.00 0.00 99 1011.0
20260901074658 18 180 0.0 0.0 0.00 0.00 0.00 99 1011.0
20260901074158 18 180 0.0 0.0 0.00 0.00 0.00 99 1011.0
20260901073658 18 180 0.0 0.0 0.00 0.00 0.00 99 1011.0
20260901073158 18 180 0.0 0.0 0.00 0.00 0.00 99 1011.0
20260901072658 18 180 0.0 0.0 0.00 0.00 0.00 99 1011.0
20260901072158 18 180 0.0 0.0 0.00 0.00 0.00 99 1011.0
20260901071659 18 180 0.0 0.0 0.00 0.00 0.00 99 1011.0
20260901071158 18 180 0.0 0.0 0.00 0.00 0.00 99 1011.0
20260901070658 18 180 0.0 0.0 0.00 0.00 0.00 99 1011.0
20260901070158 18 180 0.0 0.0 0.00 0.00 0.00 99 1011.0
20260901065658 18 180 0.0 0.0 0.00 0.00 0.00 99 1011.0
20260901065158 18 180 0.0 0.0 0.00 0.00 0.00 99 1011.0
20260901064658 18 180 0.0 0.0 0.00 0.00 0.00 99 1011.0
20260901064158 18 180 0.0 0.0 0.00 0.00 0.00 99 1011.0
20260901063658 18 155 0.0 0.0 0.00 0.00 0.00 99 1011.0
20260901063158 18 94 0.0 0.0 0.00 0.00 0.00 99 1011.0
20260901062658 18 239 0.0 0.0 0.00 0.00 0.00 99 1011.0
20260901062158 18 225 0.0 0.0 0.00 0.00 0.00 99 1011.0
20260901061659 18 225 0.0 0.0 0.00 0.00 0.00 99 1011.0
20260901061158 18 166 0.0 0.0 0.00 0.00 0.00 99 1011.1
20260901060658 18 135 0.0 0.0 0.00 0.00 0.00 99 1012.0
20260901060158 18 135 0.0 0.0 0.00 0.00 0.00 99 1012.0
20260901055658 18 128 0.0 0.0 0.00 0.00 0.00 99 1012.0
20260901055158 18 105 0.0 0.0 0.00 0.00 0.00 99 1012.0
20260901054658 18 135 0.0 0.0 0.00 0.00 0.00 99 1012.0
20260901054158 18 135 0.0 0.0 0.00 0.00 0.00 99 1012.0
20260901053658 18 94 0.0 0.0 0.00 0.00 0.00 99 1012.0
20260901053158 18 111 0.0 0.0 0.00 0.00 0.00 99 1012.0
20260901052658 18 112 0.0 0.0 0.00 0.00 0.00 99 1012.0
20260901052158 18 112 0.0 0.0 0.00 0.00 0.00 99 1012.0
20260901051658 18 112 0.0 0.0 0.00 0.00 0.00 99 1012.0
20260901051158 18 112 0.0 0.0 0.00 0.00 0.00 99 1012.0
20260901050658 18 41 0.0 0.0 0.00 0.00 0.00 99 1012.0
20260901050158 18 229 0.0 0.0 0.00 0.00 0.00 99 1012.0
20260901045658 18 247 0.0 0.0 0.00 0.00 0.00 99 1012.0
20260901045158 18 199 0.0 0.0 0.00 0.00 0.00 99 1012.0
20260901044658 18 180 0.0 0.0 0.00 0.00 0.00 99 1012.0
20260901044158 18 180 0.0 0.0 0.00 0.00 0.00 99 1012.0
20260901043658 18 156 0.0 0.0 0.00 0.00 0.00 99 1012.0
20260901043158 18 92 0.0 0.0 0.00 0.00 0.00 99 1012.0
20260901042658 18 214 0.0 0.0 0.00 0.00 0.00 99 1012.0
20260901042158 18 190 0.0 0.0 0.00 0.00 0.00 99 1012.0
20260901041658 18 155 0.0 0.0 0.00 0.00 0.00 99 1012.0
20260901041158 18 260 0.0 0.0 0.00 0.00 0.00 99 1012.0
20260901040658 18 168 0.0 0.0 0.00 0.00 0.00 99 1012.0
20260901040158 18 117 0.0 0.0 0.00 0.00 0.00 99 1012.0
20260901035658 18 112 0.0 0.0 0.00 0.00 0.00 99 1012.0
20260901035158 18 252 0.0 0.0 0.00 0.00 0.00 99 1012.0
20260901034658 18 111 0.0 0.0 0.00 0.00 0.00 99 1012.0
20260901034158 18 317 0.0 0.0 0.00 0.00 0.00 99 1012.0
20260901033658 18 260 0.0 0.0 0.00 0.00 0.00 99 1012.0
20260901033158 18 270 0.0 0.0 0.00 0.00 0.00 99 1012.0
20260901032658 18 270 0.0 0.0 0.00 0.00 0.00 99 1012.0
20260901032158 19 270 0.0 0.0 0.00 0.00 0.00 99 1012.0
20260901031658 19 270 0.0 0.0 0.00 0.00 0.00 99 1012.0
20260901031158 19 251 0.0 0.0 0.00 0.00 0.00 99 1012.0
20260901030658 19 218 0.0 0.0 0.00 0.00 0.00 99 1012.0
20260901030158 19 252 0.0 0.0 0.00 0.00 0.00 99 1012.0
20260901025658 19 90 0.0 0.0 0.00 0.00 0.00 99 1012.0
20260901025158 19 81 0.0 0.0 0.00 0.00 0.00 99 1012.0
20260901024658 19 261 0.0 0.0 0.00 0.00 0.00 99 1012.0
20260901024158 19 289 0.0 0.0 0.00 0.00 0.00 99 1012.0
20260901023658 19 155 0.0 0.0 0.00 0.00 0.00 99 1012.0
20260901023158 19 130 0.0 0.0 0.00 0.00 0.00 99 1012.0
20260901022658 19 242 0.0 0.0 0.00 0.00 0.00 99 1012.0
20260901022158 19 247 0.0 0.0 0.00 0.00 0.00 99 1012.0
20260901021658 19 237 0.0 0.0 0.00 0.00 0.00 99 1012.0
20260901021158 19 327 0.0 0.0 0.00 0.00 0.00 99 1012.0
20260901020658 19 329 0.0 0.0 0.00 0.00 0.00 99 1012.0
20260901020158 19 244 0.0 0.0 0.00 0.00 0.00 99 1012.0
20260901015658 19 312 0.0 0.0 0.00 0.00 0.00 99 1012.0
20260901015158 19 103 0.0 0.0 0.00 0.00 0.00 99 1012.0
20260901014658 19 123 0.0 0.0 0.00 0.00 0.00 99 1012.0
20260901014158 19 204 0.0 0.0 0.00 0.00 0.00 99 1012.0
20260901013658 18 235 0.0 0.0 0.00 0.00 0.00 99 1012.0
20260901013158 18 122 0.0 0.0 0.00 0.00 0.00 99 1012.0
20260901012658 19 202 0.0 0.0 0.00 0.00 0.00 99 1012.0
20260901012158 19 177 0.0 0.0 0.00 0.00 0.00 99 1012.0
20260901011658 19 157 0.0 0.0 0.00 0.00 0.00 99 1012.0
20260901011158 19 162 0.0 0.0 0.00 0.00 0.00 99 1012.0
20260901010658 19 190 0.0 0.0 0.00 0.00 0.00 99 1012.0
20260901010158 19 214 0.0 0.0 0.00 0.00 0.00 99 1012.0
20260901005658 19 223 0.0 0.0 0.00 0.00 0.00 99 1012.0
20260901005158 19 202 0.0 0.0 0.00 0.00 0.00 99 1012.0
20260901004658 19 202 0.0 0.0 0.00 0.00 0.00 99 1012.0
20260901004158 19 202 0.0 0.0 0.00 0.00 0.00 99 1012.0
20260901003658 19 202 0.0 0.0 0.00 0.00 0.00 99 1012.0
20260901003158 20 221 0.0 0.0 0.00 0.00 0.00 99 1012.0
20260901002658 20 225 0.0 0.0 0.00 0.00 0.00 99 1012.0
20260901002158 20 225 0.0 0.0 0.00 0.00 0.00 99 1012.0
20260901001658 20 225 0.0 0.0 0.00 0.00 0.00 99 1012.0
20260901001158 20 225 0.0 0.0 0.00 0.00 0.00 99 1012.0
20260901000658 20 225 0.0 0.0 0.00 0.00 0.00 99 1012.0
20260901000158 20 212 0.0 0.0 0.00 0.00 0.00 99 1012.0
20260831235658 20 135 0.0 0.0 0.00 0.00 0.00 99 1012.0
20260831235158 20 127 0.0 0.0 0.00 0.00 0.00 99 1012.0
20260831234658 20 112 0.0 0.0 0.00 0.00 0.00 99 1012.0
20260831234158 20 112 0.0 0.0 0.00 0.00 0.00 99 1012.0
20260831233658 20 112 0.0 0.0 0.00 0.00 0.00 99 1012.0
20260831233158 20 112 0.0 0.0 0.00 0.00 0.00 99 1012.0
20260831232658 20 125 0.0 0.0 0.00 0.00 0.00 99 1012.0
20260831232158 20 138 0.0 0.0 0.00 0.00 0.00 99 1012.0
20260831231658 20 120 0.0 0.0 0.00 0.00 0.00 99 1012.0
20260831231158 20 112 0.0 0.0 0.00 0.00 0.00 99 1012.0
20260831230658 20 112 0.0 0.0 0.00 0.00 0.00 99 1012.0
20260831230158 20 112 0.0 0.0 0.00 0.00 0.00 99 1012.0
20260831225658 21 112 0.0 0.0 0.00 0.00 0.00 99 1012.0
20260831225158 21 112 0.0 0.0 0.00 0.00 0.00 99 1012.0
20260831224658 21 112 0.0 0.0 0.00 0.00 0.00 99 1012.0
20260831224158 21 112 0.0 0.0 0.00 0.00 0.00 99 1012.0
20260831223658 21 90 0.0 0.0 0.00 0.00 0.00 99 1012.0
20260831223158 21 136 0.0 0.0 0.00 0.00 0.00 99 1012.0
20260831222658 21 157 0.0 0.0 0.00 0.00 0.00 99 1012.0
20260831222158 21 155 0.0 0.0 0.00 0.00 0.00 99 1012.1
20260831221658 21 180 0.0 0.0 0.00 0.00 0.00 99 1012.2
20260831221158 22 180 0.0 0.0 0.00 0.00 0.00 99 1012.1
20260831220658 22 180 0.0 0.0 0.00 0.00 0.00 99 1012.0
20260831220158 22 180 0.0 0.0 0.00 0.00 0.00 99 1012.1
20260831215658 22 171 0.0 0.0 0.00 0.00 0.00 99 1012.1
20260831215158 22 176 0.0 0.0 0.00 0.00 0.00 99 1012.1
20260831214658 22 172 0.0 0.0 0.00 0.00 0.00 99 1012.2
20260831214158 22 152 0.0 0.0 0.00 0.00 0.00 99 1012.2
20260831213658 22 148 0.0 0.0 0.00 0.00 0.00 99 1012.1
20260831213158 23 180 0.0 0.0 0.00 0.00 0.00 99 1012.2
20260831212658 23 165 0.0 0.0 0.00 0.00 0.00 99 1012.2
20260831212158 23 133 0.0 0.0 0.00 0.00 0.00 99 1012.2
20260831211658 23 95 0.0 0.0 0.00 0.00 0.00 99 1012.2
20260831211158 23 288 0.0 0.0 0.00 0.00 0.00 99 1012.1
20260831210658 23 202 0.0 0.0 0.00 0.00 0.00 99 1012.0
20260831210158 23 190 0.0 0.0 0.00 0.00 0.00 99 1012.1
20260831205658 23 215 0.0 0.0 0.00 0.00 0.00 99 1012.2
20260831205158 23 219 0.0 0.0 0.00 0.00 0.00 99 1012.2
20260831204658 23 245 0.0 0.0 0.00 0.00 0.00 99 1012.1
20260831204158 23 241 0.0 0.0 0.00 0.00 0.00 99 1012.1
20260831203658 24 247 0.0 0.0 0.00 0.00 0.00 99 1012.2
20260831203158 25 213 0.0 0.0 0.00 0.00 0.00 99 1013.0
20260831202658 25 180 0.0 0.0 0.00 0.00 0.00 99 1012.2
20260831202158 25 176 0.0 0.0 0.00 0.00 0.00 99 1012.2